Location: Ash Observatory
(39.7321°N, 75.2004°W)
Time: 14:20:10
(UTC-04:00)

ISS - Pass Details

Date: 24 May 2019
Orbit: 408 x 418 km, 51.6° (Epoch: 25 June)

Event Time Altitude Azimuth Distance (km) Brightness Sun altitude
Rises 21:08:15 0° 280° (W) 2,346 1.3 -9.2°
Reaches altitude 10° 21:10:58 10° 304° (WNW) 1,489 0.7 -9.6°
Maximum altitude 21:13:04 16° 343° (NNW) 1,198 -0.6 -9.9°
Drops below altitude 10° 21:15:12 10° 22° (NNE) 1,496 -0.7 -10.3°
Sets 21:17:56 0° 46° (NE) 2,364 0.0 -10.7°
